Year,Month,Day,Hour,Minute,Value (Times are PST for windgust in km/hr)
2020,04,25,00,00,1.60
2020,04,25,00,02,1.60
2020,04,25,00,03,1.60
2020,04,25,00,05,1.60
2020,04,25,00,06,1.60
2020,04,25,00,07,1.60
2020,04,25,00,08,1.60
2020,04,25,00,15,1.60
2020,04,25,00,16,1.60
2020,04,25,00,17,4.80
2020,04,25,00,18,3.20
2020,04,25,00,19,1.60
2020,04,25,00,20,1.60
2020,04,25,00,29,1.60
2020,04,25,00,30,1.60
2020,04,25,00,31,1.60
2020,04,25,00,32,3.20
2020,04,25,00,33,3.20
2020,04,25,00,34,1.60
2020,04,25,00,35,1.60
2020,04,25,00,38,1.60
2020,04,25,00,39,1.60
2020,04,25,00,40,4.80
2020,04,25,00,41,4.80
2020,04,25,00,42,4.80
2020,04,25,00,43,1.60
2020,04,25,00,45,3.20
2020,04,25,00,46,1.60
2020,04,25,00,50,1.60
2020,04,25,00,53,1.60
2020,04,25,00,55,3.20
2020,04,25,00,56,1.60
2020,04,25,00,57,1.60
2020,04,25,01,27,1.60
2020,04,25,01,28,1.60
2020,04,25,01,29,1.60
2020,04,25,01,33,1.60
2020,04,25,01,38,1.60
2020,04,25,01,39,3.20
2020,04,25,01,41,3.20
2020,04,25,01,48,1.60
2020,04,25,01,49,4.80
2020,04,25,01,50,3.20
2020,04,25,01,51,3.20
2020,04,25,01,52,3.20
2020,04,25,01,53,4.80
2020,04,25,01,54,4.80
2020,04,25,01,55,1.60
2020,04,25,01,56,1.60
2020,04,25,01,57,3.20
2020,04,25,01,58,3.20
2020,04,25,01,59,1.60
2020,04,25,02,00,1.60
2020,04,25,02,02,1.60
2020,04,25,02,04,1.60
2020,04,25,02,09,1.60
2020,04,25,02,13,1.60
2020,04,25,02,17,1.60
2020,04,25,02,18,3.20
2020,04,25,02,19,1.60
2020,04,25,02,21,1.60
2020,04,25,02,23,3.20
2020,04,25,02,24,1.60
2020,04,25,02,55,1.60
2020,04,25,02,56,1.60
2020,04,25,02,57,1.60
2020,04,25,02,58,1.60
2020,04,25,02,59,1.60
2020,04,25,03,01,1.60
2020,04,25,03,02,1.60
2020,04,25,03,03,8.10
2020,04,25,03,04,4.80
2020,04,25,03,05,3.20
2020,04,25,03,06,1.60
2020,04,25,03,07,3.20
2020,04,25,03,08,3.20
2020,04,25,03,09,1.60
2020,04,25,03,10,1.60
2020,04,25,03,11,1.60
2020,04,25,03,12,3.20
2020,04,25,03,13,1.60
2020,04,25,03,14,1.60
2020,04,25,03,15,1.60
2020,04,25,03,16,1.60
2020,04,25,03,20,1.60
2020,04,25,03,22,1.60
2020,04,25,03,23,1.60
2020,04,25,03,26,1.60
2020,04,25,03,27,1.60
2020,04,25,03,28,1.60
2020,04,25,03,36,1.60
2020,04,25,03,37,1.60
2020,04,25,03,38,1.60
2020,04,25,03,39,1.60
2020,04,25,03,40,1.60
2020,04,25,03,41,1.60
2020,04,25,03,42,1.60
2020,04,25,03,44,1.60
2020,04,25,03,46,1.60
2020,04,25,03,48,1.60
2020,04,25,03,56,1.60
2020,04,25,03,57,1.60
2020,04,25,03,59,3.20
2020,04,25,04,00,1.60
2020,04,25,04,01,3.20
2020,04,25,04,02,4.80
2020,04,25,04,03,4.80
2020,04,25,04,04,3.20
2020,04,25,04,05,1.60
2020,04,25,04,06,1.60
2020,04,25,04,07,3.20
2020,04,25,04,08,1.60
2020,04,25,04,09,3.20
2020,04,25,04,10,3.20
2020,04,25,04,11,1.60
2020,04,25,04,12,1.60
2020,04,25,04,15,4.80
2020,04,25,04,16,3.20
2020,04,25,04,17,1.60
2020,04,25,04,19,1.60
2020,04,25,04,32,1.60
2020,04,25,04,34,1.60
2020,04,25,04,35,1.60
2020,04,25,04,36,1.60
2020,04,25,04,37,3.20
2020,04,25,04,40,1.60
2020,04,25,04,41,1.60
2020,04,25,04,42,4.80
2020,04,25,04,43,1.60
2020,04,25,04,44,3.20
2020,04,25,04,45,3.20
2020,04,25,04,46,3.20
2020,04,25,04,47,4.80
2020,04,25,04,48,6.40
2020,04,25,04,49,6.40
2020,04,25,04,50,3.20
2020,04,25,04,51,3.20
2020,04,25,04,53,4.80
2020,04,25,04,54,1.60
2020,04,25,04,56,4.80
2020,04,25,04,57,1.60
2020,04,25,04,58,1.60
2020,04,25,04,59,1.60
2020,04,25,05,02,1.60
2020,04,25,05,03,1.60
2020,04,25,05,04,1.60
2020,04,25,05,07,1.60
2020,04,25,05,08,1.60
2020,04,25,05,09,1.60
2020,04,25,05,10,3.20
2020,04,25,05,11,4.80
2020,04,25,05,12,3.20
2020,04,25,05,13,3.20
2020,04,25,05,15,1.60
2020,04,25,05,23,1.60
2020,04,25,05,24,1.60
2020,04,25,05,25,1.60
2020,04,25,05,26,4.80
2020,04,25,05,27,4.80
2020,04,25,05,28,3.20
2020,04,25,05,29,4.80
2020,04,25,05,30,6.40
2020,04,25,05,31,6.40
2020,04,25,05,32,4.80
2020,04,25,05,33,4.80
2020,04,25,05,34,4.80
2020,04,25,05,35,4.80
2020,04,25,05,36,3.20
2020,04,25,05,37,3.20
2020,04,25,05,38,6.40
2020,04,25,05,39,6.40
2020,04,25,05,40,6.40
2020,04,25,05,41,4.80
2020,04,25,05,42,4.80
2020,04,25,05,43,6.40
2020,04,25,05,44,4.80
2020,04,25,05,45,3.20
2020,04,25,05,46,3.20
2020,04,25,05,47,3.20
2020,04,25,05,48,1.60
2020,04,25,05,49,3.20
2020,04,25,05,50,1.60
2020,04,25,05,51,4.80
2020,04,25,05,52,1.60
2020,04,25,05,54,1.60
2020,04,25,05,55,1.60
2020,04,25,05,56,3.20
2020,04,25,05,57,8.10
2020,04,25,05,58,6.40
2020,04,25,05,59,8.10
2020,04,25,06,00,9.60
2020,04,25,06,01,9.60
2020,04,25,06,02,8.10
2020,04,25,06,03,9.60
2020,04,25,06,04,8.10
2020,04,25,06,05,6.40
2020,04,25,06,06,9.60
2020,04,25,06,07,16.10
2020,04,25,06,08,11.30
2020,04,25,06,09,11.30
2020,04,25,06,10,6.40
2020,04,25,06,11,8.10
2020,04,25,06,12,8.10
2020,04,25,06,13,9.60
2020,04,25,06,14,6.40
2020,04,25,06,15,4.80
2020,04,25,06,16,6.40
2020,04,25,06,17,6.40
2020,04,25,06,18,9.60
2020,04,25,06,19,6.40
2020,04,25,06,20,4.80
2020,04,25,06,21,4.80
2020,04,25,06,22,6.40
2020,04,25,06,23,4.80
2020,04,25,06,24,9.60
2020,04,25,06,25,3.20
2020,04,25,06,26,8.10
2020,04,25,06,27,4.80
2020,04,25,06,28,4.80
2020,04,25,06,29,8.10
2020,04,25,06,30,8.10
2020,04,25,06,31,3.20
2020,04,25,06,32,3.20
2020,04,25,06,33,3.20
2020,04,25,06,34,6.40
2020,04,25,06,35,4.80
2020,04,25,06,36,8.10
2020,04,25,06,37,6.40
2020,04,25,06,38,3.20
2020,04,25,06,39,3.20
2020,04,25,06,40,3.20
2020,04,25,06,41,6.40
2020,04,25,06,42,8.10
2020,04,25,06,43,6.40
2020,04,25,06,44,4.80
2020,04,25,06,45,6.40
2020,04,25,06,46,4.80
2020,04,25,06,47,1.60
2020,04,25,06,48,6.40
2020,04,25,06,49,4.80
2020,04,25,06,50,4.80
2020,04,25,06,51,8.10
2020,04,25,06,52,4.80
2020,04,25,06,53,4.80
2020,04,25,06,54,4.80
2020,04,25,06,55,4.80
2020,04,25,06,56,6.40
2020,04,25,06,57,6.40
2020,04,25,06,58,9.60
2020,04,25,06,59,9.60
2020,04,25,07,00,9.60
2020,04,25,07,01,9.60
2020,04,25,07,02,9.60
2020,04,25,07,03,11.30
2020,04,25,07,04,9.60
2020,04,25,07,05,11.30
2020,04,25,07,06,16.10
2020,04,25,07,07,11.30
2020,04,25,07,08,16.10
2020,04,25,07,09,14.50
2020,04,25,07,10,12.90
2020,04,25,07,11,16.10
2020,04,25,07,12,16.10
2020,04,25,07,13,17.70
2020,04,25,07,14,17.70
2020,04,25,07,15,14.50
2020,04,25,07,16,14.50
2020,04,25,07,17,11.30
2020,04,25,07,18,11.30
2020,04,25,07,19,17.70
2020,04,25,07,20,16.10
2020,04,25,07,21,9.60
2020,04,25,07,22,14.50
2020,04,25,07,23,19.30
2020,04,25,07,24,19.30
2020,04,25,07,25,19.30
2020,04,25,07,26,22.50
2020,04,25,07,27,19.30
2020,04,25,07,28,19.30
2020,04,25,07,29,22.50
2020,04,25,07,30,24.20
2020,04,25,07,31,19.30
2020,04,25,07,32,16.10
2020,04,25,07,33,20.90
2020,04,25,07,34,17.70
2020,04,25,07,35,17.70
2020,04,25,07,36,17.70
2020,04,25,07,37,17.70
2020,04,25,07,38,20.90
2020,04,25,07,39,14.50
2020,04,25,07,40,17.70
2020,04,25,07,41,11.30
2020,04,25,07,42,22.50
2020,04,25,07,43,11.30
2020,04,25,07,44,11.30
2020,04,25,07,45,19.30
2020,04,25,07,46,6.40
2020,04,25,07,47,9.60
2020,04,25,07,48,9.60
2020,04,25,07,49,16.10
2020,04,25,07,50,11.30
2020,04,25,07,51,11.30
2020,04,25,07,52,9.60
2020,04,25,07,53,11.30
2020,04,25,07,54,8.10
2020,04,25,07,55,3.20
2020,04,25,07,56,1.60
2020,04,25,07,57,6.40
2020,04,25,07,58,4.80
2020,04,25,07,59,8.10
2020,04,25,08,00,11.30
2020,04,25,08,01,17.70
2020,04,25,08,02,6.40
2020,04,25,08,03,11.30
2020,04,25,08,04,9.60
2020,04,25,08,05,6.40
2020,04,25,08,06,9.60
2020,04,25,08,07,6.40
2020,04,25,08,08,6.40
2020,04,25,08,09,4.80
2020,04,25,08,10,8.10
2020,04,25,08,11,6.40
2020,04,25,08,12,6.40
2020,04,25,08,13,6.40
2020,04,25,08,14,4.80
2020,04,25,08,15,6.40
2020,04,25,08,16,6.40
2020,04,25,08,17,8.10
2020,04,25,08,18,9.60
2020,04,25,08,19,11.30
2020,04,25,08,20,12.90
2020,04,25,08,21,8.10
2020,04,25,08,22,9.60
2020,04,25,08,23,4.80
2020,04,25,08,24,3.20
2020,04,25,08,25,8.10
2020,04,25,08,26,8.10
2020,04,25,08,27,9.60
2020,04,25,08,28,8.10
2020,04,25,08,29,8.10
2020,04,25,08,30,6.40
2020,04,25,08,31,6.40
2020,04,25,08,32,9.60
2020,04,25,08,33,6.40
2020,04,25,08,34,8.10
2020,04,25,08,35,9.60
2020,04,25,08,36,9.60
2020,04,25,08,37,8.10
2020,04,25,08,38,8.10
2020,04,25,08,39,4.80
2020,04,25,08,40,4.80
2020,04,25,08,41,3.20
2020,04,25,08,42,4.80
2020,04,25,08,43,1.60
2020,04,25,08,44,4.80
2020,04,25,08,45,6.40
2020,04,25,08,46,6.40
2020,04,25,08,47,4.80
2020,04,25,08,48,3.20
2020,04,25,08,49,6.40
2020,04,25,08,50,8.10
2020,04,25,08,51,4.80
2020,04,25,08,52,8.10
2020,04,25,08,53,8.10
2020,04,25,08,54,16.10
2020,04,25,08,55,12.90
2020,04,25,08,56,14.50
2020,04,25,08,57,12.90
2020,04,25,08,58,14.50
2020,04,25,08,59,16.10
2020,04,25,09,00,9.60
2020,04,25,09,01,8.10
2020,04,25,09,02,6.40
2020,04,25,09,03,6.40
2020,04,25,09,04,16.10
2020,04,25,09,05,19.30
2020,04,25,09,06,9.60
2020,04,25,09,07,19.30
2020,04,25,09,08,22.50
2020,04,25,09,09,16.10
2020,04,25,09,10,14.50
2020,04,25,09,11,17.70
2020,04,25,09,12,17.70
2020,04,25,09,13,11.30
2020,04,25,09,14,17.70
2020,04,25,09,15,20.90
2020,04,25,09,16,20.90
2020,04,25,09,17,14.50
2020,04,25,09,18,11.30
2020,04,25,09,19,16.10
2020,04,25,09,20,25.70
2020,04,25,09,21,27.40
2020,04,25,09,22,11.30
2020,04,25,09,23,14.50
2020,04,25,09,24,20.90
2020,04,25,09,25,20.90
2020,04,25,09,26,17.70
2020,04,25,09,27,17.70
2020,04,25,09,28,19.30
2020,04,25,09,29,14.50
2020,04,25,09,30,20.90
2020,04,25,09,31,22.50
2020,04,25,09,32,19.30
2020,04,25,09,33,17.70
2020,04,25,09,34,16.10
2020,04,25,09,35,11.30
2020,04,25,09,36,16.10
2020,04,25,09,37,14.50
2020,04,25,09,38,16.10
2020,04,25,09,39,20.90
2020,04,25,09,40,14.50
2020,04,25,09,41,17.70
2020,04,25,09,42,14.50
2020,04,25,09,43,17.70
2020,04,25,09,44,14.50
2020,04,25,09,45,24.20
2020,04,25,09,46,11.30
2020,04,25,09,47,22.50
2020,04,25,09,48,19.30
2020,04,25,09,49,16.10
2020,04,25,09,50,17.70
2020,04,25,09,51,11.30
2020,04,25,09,52,17.70
2020,04,25,09,53,16.10
2020,04,25,09,54,11.30
2020,04,25,09,55,17.70
2020,04,25,09,56,20.90
2020,04,25,09,57,22.50
2020,04,25,09,58,22.50
2020,04,25,09,59,11.30
2020,04,25,10,00,9.60
2020,04,25,10,01,8.10
2020,04,25,10,02,24.20
2020,04,25,10,03,20.90
2020,04,25,10,04,20.90
2020,04,25,10,05,19.30
2020,04,25,10,06,14.50
2020,04,25,10,07,11.30
2020,04,25,10,08,8.10
2020,04,25,10,09,12.90
2020,04,25,10,10,20.90
2020,04,25,10,11,20.90
2020,04,25,10,12,14.50
2020,04,25,10,13,11.30
2020,04,25,10,14,6.40
2020,04,25,10,15,3.20
2020,04,25,10,16,9.60
2020,04,25,10,17,8.10
2020,04,25,10,18,17.70
2020,04,25,10,19,16.10
2020,04,25,10,20,9.60
2020,04,25,10,21,12.90
2020,04,25,10,22,11.30
2020,04,25,10,23,9.60
2020,04,25,10,24,11.30
2020,04,25,10,25,14.50
2020,04,25,10,26,19.30
2020,04,25,10,27,16.10
2020,04,25,10,28,9.60
2020,04,25,10,29,17.70
2020,04,25,10,30,16.10
2020,04,25,10,31,11.30
2020,04,25,10,32,6.40
2020,04,25,10,33,8.10
2020,04,25,10,34,14.50
2020,04,25,10,35,12.90
2020,04,25,10,36,11.30
2020,04,25,10,37,11.30
2020,04,25,10,38,3.20
2020,04,25,10,39,6.40
2020,04,25,10,40,8.10
2020,04,25,10,41,6.40
2020,04,25,10,42,3.20
2020,04,25,10,43,1.60
2020,04,25,10,44,3.20
2020,04,25,10,46,1.60
2020,04,25,10,47,1.60
2020,04,25,10,48,1.60
2020,04,25,10,49,4.80
2020,04,25,10,50,1.60
2020,04,25,10,54,3.20
2020,04,25,10,55,6.40
2020,04,25,10,56,6.40
2020,04,25,10,57,4.80
2020,04,25,10,58,1.60
2020,04,25,10,59,1.60
2020,04,25,11,00,4.80
2020,04,25,11,01,3.20
2020,04,25,11,02,1.60
2020,04,25,11,03,3.20
2020,04,25,11,04,6.40
2020,04,25,11,05,12.90
2020,04,25,11,06,12.90
2020,04,25,11,07,9.60
2020,04,25,11,08,4.80
2020,04,25,11,09,14.50
2020,04,25,11,10,9.60
2020,04,25,11,11,9.60
2020,04,25,11,12,9.60
2020,04,25,11,13,19.30
2020,04,25,11,14,8.10
2020,04,25,11,15,16.10
2020,04,25,11,16,11.30
2020,04,25,11,17,17.70
2020,04,25,11,18,14.50
2020,04,25,11,19,19.30
2020,04,25,11,20,24.20
2020,04,25,11,21,24.20
2020,04,25,11,22,22.50
2020,04,25,11,23,33.80
2020,04,25,11,24,25.70
2020,04,25,11,25,19.30
2020,04,25,11,26,9.60
2020,04,25,11,27,22.50
2020,04,25,11,28,22.50
2020,04,25,11,29,32.20
2020,04,25,11,30,29.00
2020,04,25,11,31,17.70
2020,04,25,11,32,20.90
2020,04,25,11,33,40.20
2020,04,25,11,34,35.40
2020,04,25,11,35,46.70
2020,04,25,11,36,17.70
2020,04,25,11,37,33.80
2020,04,25,11,38,35.40
2020,04,25,11,39,27.40
2020,04,25,11,40,37.00
2020,04,25,11,41,24.20
2020,04,25,11,42,19.30
2020,04,25,11,43,32.20
2020,04,25,11,44,29.00
2020,04,25,11,45,29.00
2020,04,25,11,46,35.40
2020,04,25,11,47,30.60
2020,04,25,11,48,33.80
2020,04,25,11,49,20.90
2020,04,25,11,50,22.50
2020,04,25,11,51,17.70
2020,04,25,11,52,20.90
2020,04,25,11,53,37.00
2020,04,25,11,54,33.80
2020,04,25,11,55,29.00
2020,04,25,11,56,29.00
2020,04,25,11,57,20.90
2020,04,25,11,58,24.20
2020,04,25,11,59,16.10
2020,04,25,12,00,22.50
2020,04,25,12,01,33.80
2020,04,25,12,02,35.40
2020,04,25,12,03,25.70
2020,04,25,12,04,33.80
2020,04,25,12,05,17.70
2020,04,25,12,06,19.30
2020,04,25,12,07,25.70
2020,04,25,12,08,17.70
2020,04,25,12,09,32.20
2020,04,25,12,10,35.40
2020,04,25,12,11,38.60
2020,04,25,12,12,17.70
2020,04,25,12,13,51.50
2020,04,25,12,14,25.70
2020,04,25,12,15,30.60
2020,04,25,12,16,37.00
2020,04,25,12,17,29.00
2020,04,25,12,18,22.50
2020,04,25,12,19,30.60
2020,04,25,12,20,22.50
2020,04,25,12,21,19.30
2020,04,25,12,22,16.10
2020,04,25,12,23,11.30
2020,04,25,12,24,22.50
2020,04,25,12,25,38.60
2020,04,25,12,26,27.40
2020,04,25,12,27,22.50
2020,04,25,12,28,12.90
2020,04,25,12,29,14.50
2020,04,25,12,30,35.40
2020,04,25,12,31,29.00
2020,04,25,12,32,27.40
2020,04,25,12,33,22.50
2020,04,25,12,34,29.00
2020,04,25,12,35,35.40
2020,04,25,12,36,19.30
2020,04,25,12,37,32.20
2020,04,25,12,38,14.50
2020,04,25,12,39,20.90
2020,04,25,12,40,33.80
2020,04,25,12,41,33.80
2020,04,25,12,42,20.90
2020,04,25,12,43,32.20
2020,04,25,12,44,30.60
2020,04,25,12,45,17.70
2020,04,25,12,46,25.70
2020,04,25,12,47,20.90
2020,04,25,12,48,4.80
2020,04,25,12,49,8.10
2020,04,25,12,50,9.60
2020,04,25,12,51,19.30
2020,04,25,12,52,27.40
2020,04,25,12,53,33.80
2020,04,25,12,54,32.20
2020,04,25,12,55,9.60
2020,04,25,12,56,20.90
2020,04,25,12,57,17.70
2020,04,25,12,58,22.50
2020,04,25,12,59,17.70
2020,04,25,13,00,22.50
2020,04,25,13,01,8.10
2020,04,25,13,02,9.60
2020,04,25,13,03,8.10
2020,04,25,13,04,20.90
2020,04,25,13,05,48.30
2020,04,25,13,06,48.30
2020,04,25,13,07,25.70
2020,04,25,13,08,32.20
2020,04,25,13,09,22.50
2020,04,25,13,10,22.50
2020,04,25,13,11,27.40
2020,04,25,13,12,17.70
2020,04,25,13,13,20.90
2020,04,25,13,14,16.10
2020,04,25,13,15,16.10
2020,04,25,13,16,9.60
2020,04,25,13,17,6.40
2020,04,25,13,18,6.40
2020,04,25,13,19,17.70
2020,04,25,13,20,22.50
2020,04,25,13,21,16.10
2020,04,25,13,22,8.10
2020,04,25,13,23,9.60
2020,04,25,13,24,17.70
2020,04,25,13,25,22.50
2020,04,25,13,26,11.30
2020,04,25,13,27,8.10
2020,04,25,13,28,3.20
2020,04,25,13,29,8.10
2020,04,25,13,30,16.10
2020,04,25,13,31,14.50
2020,04,25,13,32,6.40
2020,04,25,13,33,3.20
2020,04,25,13,34,19.30
2020,04,25,13,35,16.10
2020,04,25,13,36,25.70
2020,04,25,13,37,8.10
2020,04,25,13,38,4.80
2020,04,25,13,39,8.10
2020,04,25,13,40,17.70
2020,04,25,13,41,9.60
2020,04,25,13,42,12.90
2020,04,25,13,43,16.10
2020,04,25,13,44,11.30
2020,04,25,13,45,14.50
2020,04,25,13,46,9.60
2020,04,25,13,47,9.60
2020,04,25,13,48,6.40
2020,04,25,13,49,9.60
2020,04,25,13,50,6.40
2020,04,25,13,51,9.60
2020,04,25,13,52,4.80
2020,04,25,13,53,14.50
2020,04,25,13,54,11.30
2020,04,25,13,55,16.10
2020,04,25,13,56,16.10
2020,04,25,13,57,17.70
2020,04,25,13,58,16.10
2020,04,25,13,59,9.60
2020,04,25,14,00,20.90
2020,04,25,14,01,22.50
2020,04,25,14,02,11.30
2020,04,25,14,03,33.80
2020,04,25,14,04,24.20
2020,04,25,14,05,16.10
2020,04,25,14,06,22.50
2020,04,25,14,07,17.70
2020,04,25,14,08,17.70
2020,04,25,14,09,30.60
2020,04,25,14,10,17.70
2020,04,25,14,11,17.70
2020,04,25,14,12,29.00
2020,04,25,14,13,27.40
2020,04,25,14,14,27.40
2020,04,25,14,15,27.40
2020,04,25,14,16,24.20
2020,04,25,14,17,9.60
2020,04,25,14,18,9.60
2020,04,25,14,19,24.20
2020,04,25,14,20,8.10
2020,04,25,14,21,27.40
2020,04,25,14,22,22.50
2020,04,25,14,23,9.60
2020,04,25,14,24,20.90
2020,04,25,14,25,37.00
2020,04,25,14,26,17.70
2020,04,25,14,27,17.70
2020,04,25,14,28,29.00
2020,04,25,14,29,33.80
2020,04,25,14,30,24.20
2020,04,25,14,31,41.80
2020,04,25,14,32,33.80
2020,04,25,14,33,29.00
2020,04,25,14,34,24.20
2020,04,25,14,35,25.70
2020,04,25,14,36,32.20
2020,04,25,14,37,30.60
2020,04,25,14,38,24.20
2020,04,25,14,39,37.00
2020,04,25,14,40,24.20
2020,04,25,14,41,17.70
2020,04,25,14,42,9.60
2020,04,25,14,43,29.00
2020,04,25,14,44,29.00
2020,04,25,14,45,11.30
2020,04,25,14,46,8.10
2020,04,25,14,47,20.90
2020,04,25,14,48,17.70
2020,04,25,14,49,17.70
2020,04,25,14,50,9.60
2020,04,25,14,51,6.40
2020,04,25,14,52,6.40
2020,04,25,14,53,4.80
2020,04,25,14,54,11.30
2020,04,25,14,55,19.30
2020,04,25,14,56,16.10
2020,04,25,14,57,11.30
2020,04,25,14,58,9.60
2020,04,25,14,59,4.80
2020,04,25,15,00,8.10
2020,04,25,15,01,24.20
2020,04,25,15,02,14.50
2020,04,25,15,03,11.30
2020,04,25,15,04,6.40
2020,04,25,15,05,9.60
2020,04,25,15,06,17.70
2020,04,25,15,07,22.50
2020,04,25,15,08,24.20
2020,04,25,15,09,29.00
2020,04,25,15,10,11.30
2020,04,25,15,11,16.10
2020,04,25,15,12,20.90
2020,04,25,15,13,11.30
2020,04,25,15,14,11.30
2020,04,25,15,15,14.50
2020,04,25,15,16,19.30
2020,04,25,15,17,9.60
2020,04,25,15,18,22.50
2020,04,25,15,19,19.30
2020,04,25,15,20,11.30
2020,04,25,15,21,11.30
2020,04,25,15,22,12.90
2020,04,25,15,23,25.70
2020,04,25,15,24,8.10
2020,04,25,15,25,16.10
2020,04,25,15,26,14.50
2020,04,25,15,27,6.40
2020,04,25,15,28,20.90
2020,04,25,15,29,20.90
2020,04,25,15,30,25.70
2020,04,25,15,31,19.30
2020,04,25,15,32,17.70
2020,04,25,15,33,11.30
2020,04,25,15,34,14.50
2020,04,25,15,35,27.40
2020,04,25,15,36,37.00
2020,04,25,15,37,40.20
2020,04,25,15,38,30.60
2020,04,25,15,39,20.90
2020,04,25,15,40,20.90
2020,04,25,15,41,25.70
2020,04,25,15,42,30.60
2020,04,25,15,43,17.70
2020,04,25,15,44,20.90
2020,04,25,15,45,24.20
2020,04,25,15,46,25.70
2020,04,25,15,47,27.40
2020,04,25,15,48,27.40
2020,04,25,15,49,20.90
2020,04,25,15,50,20.90
2020,04,25,15,51,20.90
2020,04,25,15,52,25.70
2020,04,25,15,53,27.40
2020,04,25,15,54,27.40
2020,04,25,15,55,25.70
2020,04,25,15,56,25.70
2020,04,25,15,57,30.60
2020,04,25,15,58,29.00
2020,04,25,15,59,30.60
2020,04,25,16,00,20.90
2020,04,25,16,01,11.30
2020,04,25,16,02,24.20
2020,04,25,16,03,19.30
2020,04,25,16,04,20.90
2020,04,25,16,05,16.10
2020,04,25,16,06,22.50
2020,04,25,16,07,33.80
2020,04,25,16,08,20.90
2020,04,25,16,09,19.30
2020,04,25,16,10,33.80
2020,04,25,16,11,37.00
2020,04,25,16,12,17.70
2020,04,25,16,13,32.20
2020,04,25,16,14,24.20
2020,04,25,16,15,14.50
2020,04,25,16,16,17.70
2020,04,25,16,17,20.90
2020,04,25,16,18,25.70
2020,04,25,16,19,33.80
2020,04,25,16,20,22.50
2020,04,25,16,21,24.20
2020,04,25,16,22,20.90
2020,04,25,16,23,16.10
2020,04,25,16,24,14.50
2020,04,25,16,25,9.60
2020,04,25,16,26,9.60
2020,04,25,16,27,9.60
2020,04,25,16,28,14.50
2020,04,25,16,29,9.60
2020,04,25,16,30,14.50
2020,04,25,16,31,11.30
2020,04,25,16,32,9.60
2020,04,25,16,33,6.40
2020,04,25,16,34,24.20
2020,04,25,16,35,9.60
2020,04,25,16,36,17.70
2020,04,25,16,37,6.40
2020,04,25,16,38,16.10
2020,04,25,16,39,17.70
2020,04,25,16,40,20.90
2020,04,25,16,41,8.10
2020,04,25,16,42,1.60
2020,04,25,16,43,8.10
2020,04,25,16,44,11.30
2020,04,25,16,45,9.60
2020,04,25,16,46,9.60
2020,04,25,16,47,6.40
2020,04,25,16,48,11.30
2020,04,25,16,49,4.80
2020,04,25,16,50,4.80
2020,04,25,16,51,8.10
2020,04,25,16,52,9.60
2020,04,25,16,53,4.80
2020,04,25,16,54,1.60
2020,04,25,16,55,4.80
2020,04,25,16,56,11.30
2020,04,25,16,57,3.20
2020,04,25,16,58,6.40
2020,04,25,16,59,3.20
2020,04,25,17,00,1.60
2020,04,25,17,01,6.40
2020,04,25,17,02,6.40
2020,04,25,17,03,3.20
2020,04,25,17,04,12.90
2020,04,25,17,05,11.30
2020,04,25,17,06,11.30
2020,04,25,17,07,27.40
2020,04,25,17,08,19.30
2020,04,25,17,09,11.30
2020,04,25,17,10,6.40
2020,04,25,17,11,11.30
2020,04,25,17,12,8.10
2020,04,25,17,13,8.10
2020,04,25,17,14,11.30
2020,04,25,17,15,8.10
2020,04,25,17,16,6.40
2020,04,25,17,17,4.80
2020,04,25,17,18,3.20
2020,04,25,17,19,8.10
2020,04,25,17,20,8.10
2020,04,25,17,21,8.10
2020,04,25,17,22,9.60
2020,04,25,17,23,9.60
2020,04,25,17,24,8.10
2020,04,25,17,25,4.80
2020,04,25,17,26,4.80
2020,04,25,17,27,3.20
2020,04,25,17,28,6.40
2020,04,25,17,29,3.20
2020,04,25,17,30,6.40
2020,04,25,17,31,3.20
2020,04,25,17,32,6.40
2020,04,25,17,33,4.80
2020,04,25,17,34,1.60
2020,04,25,17,35,1.60
2020,04,25,17,36,8.10
2020,04,25,17,37,6.40
2020,04,25,17,38,1.60
2020,04,25,17,39,1.60
2020,04,25,17,40,3.20
2020,04,25,17,41,6.40
2020,04,25,17,42,8.10
2020,04,25,17,43,9.60
2020,04,25,17,44,8.10
2020,04,25,17,45,3.20
2020,04,25,17,46,9.60
2020,04,25,17,47,6.40
2020,04,25,17,48,4.80
2020,04,25,17,49,16.10
2020,04,25,17,50,17.70
2020,04,25,17,51,14.50
2020,04,25,17,52,6.40
2020,04,25,17,53,4.80
2020,04,25,17,54,8.10
2020,04,25,17,55,8.10
2020,04,25,17,56,17.70
2020,04,25,17,57,11.30
2020,04,25,17,58,17.70
2020,04,25,17,59,14.50
2020,04,25,18,00,9.60
2020,04,25,18,01,6.40
2020,04,25,18,02,9.60
2020,04,25,18,03,6.40
2020,04,25,18,04,20.90
2020,04,25,18,05,9.60
2020,04,25,18,06,8.10
2020,04,25,18,07,8.10
2020,04,25,18,08,14.50
2020,04,25,18,09,4.80
2020,04,25,18,10,22.50
2020,04,25,18,11,32.20
2020,04,25,18,12,29.00
2020,04,25,18,13,27.40
2020,04,25,18,14,27.40
2020,04,25,18,15,25.70
2020,04,25,18,16,17.70
2020,04,25,18,17,17.70
2020,04,25,18,18,24.20
2020,04,25,18,19,9.60
2020,04,25,18,20,4.80
2020,04,25,18,21,6.40
2020,04,25,18,22,14.50
2020,04,25,18,23,8.10
2020,04,25,18,24,8.10
2020,04,25,18,25,8.10
2020,04,25,18,26,9.60
2020,04,25,18,27,9.60
2020,04,25,18,28,16.10
2020,04,25,18,29,17.70
2020,04,25,18,30,9.60
2020,04,25,18,31,19.30
2020,04,25,18,32,16.10
2020,04,25,18,33,4.80
2020,04,25,18,34,11.30
2020,04,25,18,35,17.70
2020,04,25,18,36,22.50
2020,04,25,18,37,16.10
2020,04,25,18,38,17.70
2020,04,25,18,39,16.10
2020,04,25,18,40,20.90
2020,04,25,18,41,12.90
2020,04,25,18,42,9.60
2020,04,25,18,43,4.80
2020,04,25,18,44,1.60
2020,04,25,18,45,9.60
2020,04,25,18,46,9.60
2020,04,25,18,47,12.90
2020,04,25,18,48,22.50
2020,04,25,18,49,9.60
2020,04,25,18,50,17.70
2020,04,25,18,51,14.50
2020,04,25,18,52,9.60
2020,04,25,18,53,17.70
2020,04,25,18,54,14.50
2020,04,25,18,55,19.30
2020,04,25,18,56,14.50
2020,04,25,18,57,16.10
2020,04,25,18,58,8.10
2020,04,25,18,59,8.10
2020,04,25,19,00,16.10
2020,04,25,19,01,19.30
2020,04,25,19,02,16.10
2020,04,25,19,03,17.70
2020,04,25,19,04,14.50
2020,04,25,19,05,22.50
2020,04,25,19,06,17.70
2020,04,25,19,07,20.90
2020,04,25,19,08,17.70
2020,04,25,19,09,17.70
2020,04,25,19,10,17.70
2020,04,25,19,11,22.50
2020,04,25,19,12,29.00
2020,04,25,19,13,27.40
2020,04,25,19,14,25.70
2020,04,25,19,15,27.40
2020,04,25,19,16,20.90
2020,04,25,19,17,27.40
2020,04,25,19,18,22.50
2020,04,25,19,19,24.20
2020,04,25,19,20,19.30
2020,04,25,19,21,16.10
2020,04,25,19,22,22.50
2020,04,25,19,23,20.90
2020,04,25,19,24,25.70
2020,04,25,19,25,25.70
2020,04,25,19,26,20.90
2020,04,25,19,27,27.40
2020,04,25,19,28,24.20
2020,04,25,19,29,20.90
2020,04,25,19,30,19.30
2020,04,25,19,31,29.00
2020,04,25,19,32,22.50
2020,04,25,19,33,17.70
2020,04,25,19,34,14.50
2020,04,25,19,35,17.70
2020,04,25,19,36,27.40
2020,04,25,19,37,24.20
2020,04,25,19,38,22.50
2020,04,25,19,39,33.80
2020,04,25,19,40,22.50
2020,04,25,19,41,19.30
2020,04,25,19,42,22.50
2020,04,25,19,43,16.10
2020,04,25,19,44,17.70
2020,04,25,19,45,20.90
2020,04,25,19,46,17.70
2020,04,25,19,47,16.10
2020,04,25,19,48,17.70
2020,04,25,19,49,16.10
2020,04,25,19,50,16.10
2020,04,25,19,51,22.50
2020,04,25,19,52,19.30
2020,04,25,19,53,22.50
2020,04,25,19,54,17.70
2020,04,25,19,55,22.50
2020,04,25,19,56,16.10
2020,04,25,19,57,19.30
2020,04,25,19,58,19.30
2020,04,25,19,59,11.30
2020,04,25,20,00,20.90
2020,04,25,20,01,11.30
2020,04,25,20,02,9.60
2020,04,25,20,03,6.40
2020,04,25,20,04,6.40
2020,04,25,20,05,9.60
2020,04,25,20,06,14.50
2020,04,25,20,07,17.70
2020,04,25,20,08,8.10
2020,04,25,20,09,8.10
2020,04,25,20,10,9.60
2020,04,25,20,11,8.10
2020,04,25,20,12,11.30
2020,04,25,20,13,9.60
2020,04,25,20,14,16.10
2020,04,25,20,15,14.50
2020,04,25,20,16,8.10
2020,04,25,20,17,11.30
2020,04,25,20,18,9.60
2020,04,25,20,19,6.40
2020,04,25,20,20,3.20
2020,04,25,20,21,1.60
2020,04,25,20,22,3.20
2020,04,25,20,23,16.10
2020,04,25,20,24,20.90
2020,04,25,20,25,16.10
2020,04,25,20,26,14.50
2020,04,25,20,27,11.30
2020,04,25,20,28,3.20
2020,04,25,20,29,3.20
2020,04,25,20,31,4.80
2020,04,25,20,32,3.20
2020,04,25,20,33,8.10
2020,04,25,20,34,6.40
2020,04,25,20,35,4.80
2020,04,25,20,37,3.20
2020,04,25,20,38,4.80